Probability
0 0 0 0 0 0 0 0 0 0 0 0 0 1 4 8 13 18 24 29 32 33 36 41 47 57 64 65 68 76 81 82 81 78 74 65 53 39 27 20 16 15 14 15
0 0 0 0 0 0 0 0 0 0 0 0 1 3 7 12 18 24 29 31 31 33 37 43 49 59 64 65 69 75 78 79 79 77 72 62 48 35 26 20 16 13 13 13
0 0 0 0 0 0 0 0 0 0 0 0 1 4 9 15 23 32 37 37 36 37 40 45 51 58 64 66 69 71 73 75 76 74 68 58 45 32 24 18 12 9 9 9
0 0 0 0 0 0 0 0 0 0 0 0 1 2 7 15 25 35 42 44 44 44 46 49 53 57 60 62 62 62 63 65 67 66 60 52 41 29 20 13 7 5 4 4
0 0 0 0 0 0 0 0 0 0 0 0 0 1 5 13 23 32 41 46 47 46 47 50 51 52 51 49 48 49 51 53 53 51 45 39 31 22 14 7 3 1 1 1
0 0 0 0 0 0 0 0 0 0 0 0 0 0 4 11 21 29 37 41 42 42 43 43 42 41 40 38 37 38 41 41 38 32 27 23 18 12 6 2 0 0 0 0
0 0 0 0 0 0 0 0 0 0 0 0 0 1 4 11 19 27 30 32 31 31 32 32 31 30 29 28 27 28 29 27 23 18 14 11 8 5 2 0 0 0 0 0
0 0 0 0 0 0 0 0 0 0 0 0 0 3 8 12 17 21 21 20 20 20 20 21 20 20 19 17 15 14 15 13 10 8 6 4 2 1 0 0 0 0 0 0
0 0 0 0 0 0 0 0 0 0 0 0 1 5 11 15 15 14 13 12 12 11 11 11 11 11 10 8 6 6 5 4 3 3 2 1 0 0 0 0 0 0 0 0
0 0 0 0 0 0 0 0 0 0 0 0 1 4 11 15 13 10 9 8 7 6 6 5 4 4 4 3 2 2 2 1 1 1 1 0 0 0 0 0 0 0 0 0
0 0 0 0 0 0 0 0 0 0 0 0 1 3 8 13 11 5 4 4 3 3 2 1 1 1 1 1 1 1 1 1 0 0 0 0 0 0 0 0 0 0 0 0
0 0 0 0 0 0 1 1 0 0 0 0 0 1 5 9 6 2 1 1 1 1 0 0 0 0 0 0 0 0 0 0 0 0 0 0 0 0 0 0 0 0 0 0
0 0 0 0 0 0 1 2 1 0 0 0 1 2 3 3 2 0 0 0 0 0 0 0 0 0 0 0 0 0 0 0 0 0 0 0 0 0 0 0 0 0 0 0
0 0 0 0 0 0 1 2 2 1 0 1 2 2 2 1 0 0 0 0 0 0 0 0 0 0 0 0 0 0 0 0 0 0 0 0 0 0 0 0 0 0 0 0
0 0 0 0 0 0 0 1 1 2 1 1 2 2 1 1 0 0 0 0 0 0 0 0 0 0 0 0 0 0 0 0 0 0 0 0 0 0 0 0 0 0 0 0
0 0 0 0 0 0 0 0 1 2 2 1 2 2 1 0 0 0 0 0 0 0 0 0 0 0 0 0 0 0 0 0 0 0 0 0 0 0 0 0 0 0 0 0
0 0 0 0 0 0 0 0 0 1 2 1 1 1 0 0 0 0 0 0 0 0 0 0 0 0 0 0 0 0 0 0 0 0 0 0 0 0 0 0 0 0 0 0
0 0 0 0 0 0 0 0 0 1 2 1 0 0 0 0 0 0 0 0 0 0 0 0 0 0 0 0 0 0 0 0 0 0 0 0 0 0 0 0 0 0 0 0
0 0 0 0 0 0 0 0 0 0 1 1 0 0 0 0 0 0 0 0 0 0 0 0 0 0 0 0 0 0 0 0 0 0 0 0 0 0 0 0 0 0 0 0
0 0 0 0 0 0 0 0 0 0 0 0 0 0 0 0 0 0 0 0 0 0 0 0 0 0 0 0 0 0 0 0 0 0 0 0 0 0 0 0 0 0 0 0
0 0 0 0 0 0 0 0 0 0 0 0 0 0 0 0 0 0 0 0 0 0 0 0 0 0 0 0 0 0 0 0 0 0 0 0 0 0 0 0 0 0 0 0
0 0 0 0 0 0 0 0 0 0 0 0 0 0 0 0 0 0 0 0 0 0 0 0 0 0 0 0 0 0 0 0 0 0 0 0 0 0 0 0 0 0 0 0
0 0 0 0 0 0 0 0 0 0 0 0 0 0 0 0 0 0 0 0 0 0 0 0 0 0 0 0 0 0 0 0 0 0 0 0 0 0 0 0 0 0 0 0
0 0 0 0 0 0 0 0 0 0 0 0 0 0 0 0 0 0 0 0 0 0 0 0 0 0 0 0 0 0 0 0 0 0 0 0 0 0 0 0 0 0 0 0
0 0 0 0 0 0 0 0 0 0 0 0 0 0 0 0 0 0 0 0 0 0 0 0 0 0 0 0 0 0 0 0 0 0 0 0 0 0 0 0 0 0 0 0
0 0 0 0 0 0 0 0 0 0 0 0 0 0 0 0 0 0 0 0 0 0 0 0 0 0 0 0 0 0 0 0 0 0 0 0 0 0 0 0 0 0 0 0
Wind_Speed
2 2 3 6 6 7 5 7 10 11 8 5 11 14 13 7 3 4 5 5 7 7 5 5 5 6 6 7 8 10 11 11 9 8 7 6 5 4 4 4 4 5 5 5
3 4 9 7 6 6 7 9 11 12 9 5 6 9 7 2 2 3 4 4 5 6 6 6 7 6 7 7 7 8 9 9 9 6 5 4 5 5 4 4 6 6 6 5
6 9 7 7 8 9 10 8 8 8 8 6 2 5 2 2 6 9 8 7 5 7 8 7 7 6 7 7 7 7 8 7 7 7 6 7 6 4 4 5 5 6 7 7
7 10 8 8 9 9 9 9 7 5 3 5 3 2 5 1 6 10 10 9 8 8 8 7 7 6 6 6 6 6 7 7 6 7 8 9 6 5 4 4 5 7 8 8
7 5 6 9 12 10 10 8 4 2 0 3 3 1 6 3 5 8 9 10 10 9 9 8 8 7 7 7 7 6 7 8 7 7 7 8 7 6 7 7 9 8 7 8
8 7 5 8 9 8 6 2 4 4 5 2 3 2 4 2 4 8 9 11 11 11 11 11 10 11 11 10 9 8 9 9 7 7 8 9 10 10 10 9 8 7 6 7
8 7 5 3 4 4 1 5 4 4 3 5 3 2 1 6 9 11 12 11 11 11 11 11 12 12 12 12 11 11 11 11 10 10 10 10 11 11 11 9 9 8 6 6
3 7 4 1 3 3 2 8 7 4 3 4 3 3 5 11 13 14 13 12 12 12 11 12 12 12 12 13 13 13 14 13 13 13 12 12 11 9 9 9 8 8 6 7
2 6 6 4 3 5 2 3 7 6 1 1 1 4 6 10 12 12 12 12 11 11 11 12 12 13 13 14 14 13 14 15 14 14 13 13 12 11 11 10 9 7 7 7
2 4 6 5 3 2 5 4 5 5 4 2 3 4 5 9 10 11 11 10 10 10 11 11 11 12 13 13 13 14 15 15 14 13 12 12 12 11 10 10 10 9 8 7
2 1 6 6 4 2 3 3 3 3 4 5 3 2 1 11 13 13 11 10 9 10 10 10 10 11 12 13 13 14 14 14 14 13 13 13 12 11 10 10 10 8 7 7
1 3 1 3 2 2 5 2 3 3 3 3 3 1 6 11 13 14 13 11 10 10 10 10 10 11 12 12 12 13 13 13 12 12 12 12 11 10 10 10 9 8 7 7
2 5 4 7 8 8 6 5 2 3 3 2 3 4 6 10 11 12 12 11 11 11 11 10 10 11 11 12 12 12 12 12 11 11 12 11 10 10 10 9 8 8 8 7
4 5 4 2 2 3 5 9 7 3 2 1 3 8 8 9 10 10 11 11 11 10 11 11 11 11 11 11 11 11 11 11 11 11 11 10 9 9 8 8 8 7 7 7
6 4 1 0 1 5 8 10 10 6 2 3 5 7 8 9 9 10 11 12 12 11 11 11 11 10 11 11 10 10 10 10 10 10 10 8 8 8 8 8 7 7 7 7
5 3 2 2 5 10 11 12 10 8 6 8 10 8 7 9 9 9 9 11 12 11 12 11 11 11 10 10 10 10 9 8 8 9 8 7 7 7 7 6 6 6 6 5
2 3 3 1 1 5 8 8 7 7 6 4 5 6 10 9 8 8 9 10 11 11 11 11 10 9 9 8 8 8 7 7 8 8 7 6 6 6 5 6 5 5 4 4
2 2 3 2 4 6 0 1 4 8 8 8 10 9 10 10 9 8 8 10 10 10 10 9 8 8 7 6 6 7 7 7 7 7 6 5 5 5 5 5 4 3 2 2
3 4 3 3 4 4 1 2 1 3 5 5 10 10 11 12 10 7 7 8 8 8 8 7 7 6 6 6 6 7 7 6 7 6 5 4 4 4 4 4 2 2 1 1
6 6 5 4 4 2 2 6 1 6 4 2 7 10 9 6 5 4 5 8 8 8 6 6 6 6 6 5 6 7 6 6 5 4 4 4 4 4 3 2 1 1 1 1
5 6 5 4 4 1 3 6 2 2 2 3 6 7 6 2 4 8 9 8 7 7 6 6 6 5 5 5 6 7 6 4 3 3 3 3 2 2 1 1 1 1 2 2
3 3 3 3 3 2 5 4 3 3 2 5 5 5 8 10 12 10 9 8 7 6 6 6 5 5 4 5 6 6 4 2 3 3 3 2 1 1 2 2 2 3 3 3
3 4 4 3 3 2 2 4 3 5 5 5 6 9 12 12 10 10 8 7 6 5 5 5 6 5 4 4 5 5 2 2 3 2 1 0 1 1 1 2 2 3 3 3
1 4 5 4 3 3 4 5 5 6 6 7 9 10 10 10 10 9 7 6 5 5 5 5 6 5 3 3 4 3 2 2 2 1 1 1 0 0 1 1 2 2 2 2
0 3 5 5 4 5 5 5 7 9 10 10 10 9 9 11 9 8 6 6 5 4 4 4 5 5 4 3 2 1 1 2 1 0 1 1 1 1 1 1 1 2 2 2
1 4 6 6 7 6 4 4 8 9 9 10 11 9 8 8 8 7 6 4 4 5 4 5 4 4 3 3 2 1 2 2 1 1 1 1 1 1 2 2 1 2 1 2
Wind_Direction
257 112 229 237 215 213 254 278 282 278 275 263 246 247 254 245 220 191 194 186 178 178 166 134 136 135 139 153 157 163 173 171 166 161 153 145 133 116 99 92 99 102 103 109
5 260 236 236 251 257 266 276 280 287 293 278 258 251 245 246 161 146 148 154 161 147 121 107 105 116 144 151 160 169 170 168 170 162 142 122 114 102 95 89 77 77 85 90
221 245 238 234 254 258 262 249 258 272 314 338 29 324 307 48 77 68 64 80 91 115 127 120 115 120 131 139 151 158 159 154 144 129 116 111 103 97 88 83 74 63 73 76
242 249 250 242 245 232 257 252 252 278 1 315 52 306 294 43 64 63 59 61 69 75 87 100 104 104 106 116 122 127 123 111 114 127 136 138 135 129 111 99 85 70 66 71
255 253 240 240 243 229 234 253 251 253 93 338 4 106 289 39 77 75 63 57 58 65 76 79 79 79 73 72 82 91 98 102 108 113 126 126 121 115 108 99 90 78 67 68
258 263 235 234 251 232 230 302 356 45 71 336 262 145 290 358 130 105 78 64 59 60 66 64 62 63 61 61 65 78 88 85 85 95 103 115 120 119 114 108 101 86 76 71
308 296 271 244 293 305 116 92 33 5 17 256 257 135 26 37 85 96 89 72 61 59 59 60 59 61 63 65 68 74 80 78 79 84 87 94 102 104 105 106 102 96 85 78
318 302 298 290 202 213 193 139 153 182 216 287 342 108 84 81 82 82 79 72 63 60 59 59 57 59 62 65 67 73 78 78 76 79 80 82 85 91 93 94 96 93 89 84
264 281 300 292 239 160 159 178 171 144 174 309 293 114 113 102 94 89 83 75 68 63 63 64 62 62 63 65 66 71 77 77 77 79 81 80 80 85 91 90 87 85 85 87
198 283 304 308 25 40 157 161 95 120 159 231 253 180 172 147 124 110 98 88 79 72 68 66 65 67 67 68 71 71 73 75 75 76 80 83 80 82 85 87 85 82 79 78
87 50 331 13 35 342 36 52 90 136 162 168 221 268 283 150 132 119 108 99 92 86 80 75 73 73 74 72 71 73 74 77 77 77 81 82 81 81 82 82 80 78 75 73
9 106 2 310 308 34 86 81 109 145 247 181 160 25 47 112 118 118 113 105 97 89 84 81 80 79 78 76 75 76 77 79 79 82 82 82 80 79 78 76 74 73 71 67
43 74 30 354 354 6 29 18 21 143 127 139 139 119 89 103 109 112 114 112 106 99 92 86 83 82 83 83 82 81 80 81 80 81 81 80 78 76 76 74 71 69 69 67
80 75 115 155 273 326 8 10 13 69 104 134 135 132 132 123 121 118 117 113 107 100 96 93 88 83 83 82 83 85 83 82 83 81 80 79 76 76 76 74 72 71 72 72
72 78 63 100 40 72 47 24 25 39 60 120 109 117 133 129 125 125 124 120 112 106 99 95 93 91 88 85 83 84 83 81 83 83 80 79 79 78 75 72 69 66 67 72
59 79 41 34 89 80 54 32 34 42 52 94 98 85 96 110 114 118 117 115 111 106 103 100 97 93 91 90 89 86 85 83 85 85 83 81 78 76 73 71 69 67 64 63
37 78 64 28 109 79 41 10 33 50 33 69 94 114 124 114 112 119 122 118 116 113 108 104 101 97 94 91 93 92 91 88 87 88 88 83 81 80 76 78 73 68 63 64
132 84 101 89 63 71 239 319 75 80 57 75 100 111 110 107 97 89 106 118 117 113 108 103 99 94 91 91 93 94 90 88 89 89 88 87 90 85 78 73 67 58 54 61
131 120 88 84 90 111 90 323 262 109 71 84 113 117 116 115 94 69 71 96 105 105 104 102 101 100 94 90 92 89 85 83 85 86 86 90 93 90 83 73 61 50 56 35
51 70 86 82 93 101 323 328 346 107 98 135 136 141 147 139 119 128 113 106 103 99 98 98 94 91 88 84 89 91 91 91 94 101 102 96 94 100 101 96 67 17 42 336
23 31 52 74 87 79 309 322 24 114 185 163 152 157 160 133 128 128 119 108 107 104 103 100 95 90 90 90 91 94 96 105 116 109 100 92 93 114 128 98 25 20 20 9
96 77 51 78 89 265 314 21 79 157 120 113 115 120 113 109 110 115 117 116 114 110 107 104 98 94 91 96 100 100 109 126 107 92 86 86 98 112 105 75 35 36 41 32
88 154 144 134 174 213 43 89 109 119 111 110 116 122 123 120 122 121 120 122 120 117 111 108 108 99 90 100 111 114 134 121 101 88 75 336 33 47 83 103 84 61 56 52
55 104 95 89 108 107 87 84 81 97 108 115 125 127 125 122 123 123 124 123 118 114 114 113 109 106 103 110 117 135 150 135 120 122 273 265 320 358 63 90 111 107 88 67
265 94 92 99 130 94 65 89 103 100 104 111 115 116 122 123 125 125 124 123 122 118 118 119 121 127 134 131 133 161 157 129 107 16 308 281 229 177 140 105 122 142 173 171
316 142 146 182 184 144 146 129 114 111 114 121 120 111 115 122 123 120 120 122 123 121 119 123 131 138 148 146 159 198 185 157 147 307 318 301 207 177 146 129 65 31 183 181